Terminal Aerodrome Forecast
Issued by NWS St Louis, MO

Home | Current Version | Previous Version | Text Only | Print | Product List | Glossary On
Versions: 1 2 3 4 5 6 7 8 9 10 11 12 13 14 15 16 17 18 19 20 21 22 23 24 25 26
000
FTUS43 KLSX 201700
TAFCOU
TAF
KCOU 201720Z 2018/2118 29019G29KT P6SM BKN050
     FM210000 25009KT P6SM SKC
     FM211500 26015G25KT P6SM BKN080=

USA.gov is the U.S. government's official web portal to all federal, state and local government web resources and services.